Simultaneous Nadir Overpasses (SNOs) Predictions

Prediction of SNOs between AQUA and NOAA-19 Satellite Orbit:

Table of predicted SNOs for the next 14.0 days since TLE Epoch: 10/20/2018
Index Date (AQUA) Time (AQUA) Lat,Lon (AQUA) SZA (AQUA ) Date (NOAA-19) Time (NOAA-19) Lat,Lon (NOAA-19) SZA (NOAA-19 ) Distance(km) Time Diff (sec)
1 10/22/2018 07:50:01 80.68, 25.46 93.19 10/22/2018 07:49:26 80.68, 25.62 93.19 3.00 35
2 10/22/2018 08:39:28 -80.69,-167.00 86.79 10/22/2018 08:40:31 -80.69,-167.02 86.81 0.39 63
3 10/24/2018 13:23:45 -80.69, 121.92 86.03 10/24/2018 13:23:03 -80.67, 122.00 86.03 2.48 42
4 10/24/2018 14:13:11 80.68, -70.36 93.98 10/24/2018 14:13:58 80.68, -70.39 93.97 0.51 47
5 10/26/2018 18:57:27 80.66,-141.17 94.68 10/26/2018 18:56:30 80.67,-141.28 94.72 2.31 57
6 10/26/2018 19:46:55 -80.69, 26.11 85.25 10/26/2018 19:47:34 -80.68, 26.21 85.28 2.08 39
7 10/29/2018 00:31:11 -80.67, -44.69 84.57 10/29/2018 00:30:06 -80.66, -44.83 84.53 2.51 65
8 10/29/2018 01:20:37 80.67, 122.96 95.45 10/29/2018 01:21:01 80.68, 123.05 95.45 2.53 24
9 10/31/2018 06:54:21 -80.67,-140.56 83.81 10/31/2018 06:54:37 -80.67,-140.68 83.81 2.12 16




NCC Satellite Simultaneous Nadir Overpasses (SNOs) Prediction Service
